Flight Briefing for CPX798

Departure Arrival
Arturo Merino Benitez International Airport (SCEL)
Click to view FAA NOTAMS
Miami International Airport (KMIA)
Click to view FAA NOTAMS
Departure Time Arrival Time
N/A N/A
Aircraft Distance
B747-400BCF 3625nm
Departure METAR Arrival METAR
SCEL 250300Z VRB02KT 8000 BKN170 BKN200 12/M04 Q1012 NOSIG KMIA 250253Z 07010KT 10SM FEW039 26/18 A3009 RMK AO2 SLP190 T02610178 53011
Suggested Route
IKBIX Y183 PEAKY DVALL CURSO5


View recent IFR Routes data
Notes



Charts and Procedures

Charts for SCEL
No chart available
Charts for KMIA
No chart available

Windy.com Weather Map